Year,Month,Day,Hour,Minute,Value (Times are PST for temperature in C)
2012,03,25,00,00,5.40
2012,03,25,00,01,5.40
2012,03,25,00,02,5.40
2012,03,25,00,03,5.30
2012,03,25,00,04,5.30
2012,03,25,00,05,5.30
2012,03,25,00,06,5.30
2012,03,25,00,07,5.30
2012,03,25,00,08,5.20
2012,03,25,00,09,5.20
2012,03,25,00,10,5.20
2012,03,25,00,11,5.20
2012,03,25,00,12,5.20
2012,03,25,00,13,5.10
2012,03,25,00,14,5.10
2012,03,25,00,15,5.10
2012,03,25,00,16,5.10
2012,03,25,00,17,5.10
2012,03,25,00,18,5.10
2012,03,25,00,19,5.00
2012,03,25,00,20,5.00
2012,03,25,00,21,5.00
2012,03,25,00,22,5.00
2012,03,25,00,23,4.90
2012,03,25,00,24,4.90
2012,03,25,00,25,4.90
2012,03,25,00,26,4.90
2012,03,25,00,27,4.90
2012,03,25,00,28,4.90
2012,03,25,00,29,4.90
2012,03,25,00,30,4.90
2012,03,25,00,31,4.90
2012,03,25,00,32,4.90
2012,03,25,00,33,4.90
2012,03,25,00,34,4.90
2012,03,25,00,35,4.90
2012,03,25,00,36,4.90
2012,03,25,00,37,4.80
2012,03,25,00,38,4.80
2012,03,25,00,39,4.80
2012,03,25,00,40,4.80
2012,03,25,00,41,4.80
2012,03,25,00,42,4.80
2012,03,25,00,43,4.80
2012,03,25,00,44,4.80
2012,03,25,00,45,4.80
2012,03,25,00,46,4.80
2012,03,25,00,47,4.80
2012,03,25,00,48,4.80
2012,03,25,00,49,4.80
2012,03,25,00,50,4.80
2012,03,25,00,51,4.80
2012,03,25,00,52,4.80
2012,03,25,00,53,4.80
2012,03,25,00,54,4.80
2012,03,25,00,55,4.80
2012,03,25,00,56,4.80
2012,03,25,00,57,4.90
2012,03,25,00,58,4.90
2012,03,25,00,59,4.90
2012,03,25,01,00,4.90
2012,03,25,01,01,4.90
2012,03,25,01,02,4.90
2012,03,25,01,03,4.90
2012,03,25,01,04,4.90
2012,03,25,01,05,4.90
2012,03,25,01,06,4.90
2012,03,25,01,07,4.90
2012,03,25,01,08,4.90
2012,03,25,01,09,4.90
2012,03,25,01,10,4.90
2012,03,25,01,11,4.90
2012,03,25,01,12,4.90
2012,03,25,01,13,4.90
2012,03,25,01,14,4.90
2012,03,25,01,15,4.90
2012,03,25,01,16,4.80
2012,03,25,01,17,4.80
2012,03,25,01,18,4.80
2012,03,25,01,19,4.80
2012,03,25,01,20,4.80
2012,03,25,01,21,4.80
2012,03,25,01,22,4.80
2012,03,25,01,23,4.70
2012,03,25,01,24,4.70
2012,03,25,01,25,4.70
2012,03,25,01,26,4.70
2012,03,25,01,27,4.70
2012,03,25,01,28,4.70
2012,03,25,01,29,4.70
2012,03,25,01,30,4.70
2012,03,25,01,31,4.70
2012,03,25,01,32,4.60
2012,03,25,01,33,4.60
2012,03,25,01,34,4.60
2012,03,25,01,35,4.60
2012,03,25,01,36,4.60
2012,03,25,01,37,4.60
2012,03,25,01,38,4.60
2012,03,25,01,39,4.60
2012,03,25,01,40,4.60
2012,03,25,01,41,4.60
2012,03,25,01,42,4.60
2012,03,25,01,43,4.60
2012,03,25,01,44,4.60
2012,03,25,01,45,4.60
2012,03,25,01,46,4.60
2012,03,25,01,47,4.60
2012,03,25,01,48,4.60
2012,03,25,01,49,4.60
2012,03,25,01,50,4.60
2012,03,25,01,51,4.60
2012,03,25,01,52,4.60
2012,03,25,01,53,4.60
2012,03,25,01,54,4.60
2012,03,25,01,55,4.60
2012,03,25,01,56,4.60
2012,03,25,01,57,4.60
2012,03,25,01,58,4.60
2012,03,25,01,59,4.60
2012,03,25,02,00,4.60
2012,03,25,02,01,4.60
2012,03,25,02,02,4.60
2012,03,25,02,03,4.60
2012,03,25,02,04,4.50
2012,03,25,02,05,4.50
2012,03,25,02,06,4.50
2012,03,25,02,07,4.50
2012,03,25,02,08,4.50
2012,03,25,02,09,4.60
2012,03,25,02,10,4.60
2012,03,25,02,11,4.60
2012,03,25,02,12,4.60
2012,03,25,02,13,4.60
2012,03,25,02,14,4.60
2012,03,25,02,15,4.60
2012,03,25,02,16,4.60
2012,03,25,02,17,4.60
2012,03,25,02,18,4.60
2012,03,25,02,19,4.60
2012,03,25,02,20,4.60
2012,03,25,02,21,4.60
2012,03,25,02,22,4.70
2012,03,25,02,23,4.70
2012,03,25,02,24,4.70
2012,03,25,02,25,4.70
2012,03,25,02,26,4.70
2012,03,25,02,27,4.70
2012,03,25,02,28,4.70
2012,03,25,02,29,4.80
2012,03,25,02,30,4.80
2012,03,25,02,31,4.80
2012,03,25,02,32,4.90
2012,03,25,02,33,4.90
2012,03,25,02,34,4.90
2012,03,25,02,35,5.00
2012,03,25,02,36,5.00
2012,03,25,02,37,5.00
2012,03,25,02,38,5.00
2012,03,25,02,39,5.10
2012,03,25,02,40,5.10
2012,03,25,02,41,5.10
2012,03,25,02,42,5.10
2012,03,25,02,43,5.10
2012,03,25,02,44,5.10
2012,03,25,02,45,5.10
2012,03,25,02,46,5.10
2012,03,25,02,47,5.10
2012,03,25,02,48,5.00
2012,03,25,02,49,5.00
2012,03,25,02,50,5.00
2012,03,25,02,51,5.00
2012,03,25,02,52,5.00
2012,03,25,02,53,5.00
2012,03,25,02,54,4.90
2012,03,25,02,55,4.90
2012,03,25,02,56,4.90
2012,03,25,02,57,4.90
2012,03,25,02,58,4.90
2012,03,25,02,59,4.90
2012,03,25,03,00,4.90
2012,03,25,03,01,4.90
2012,03,25,03,02,4.80
2012,03,25,03,03,4.80
2012,03,25,03,04,4.80
2012,03,25,03,05,4.80
2012,03,25,03,06,4.80
2012,03,25,03,07,4.80
2012,03,25,03,08,4.80
2012,03,25,03,09,4.80
2012,03,25,03,10,4.80
2012,03,25,03,11,4.70
2012,03,25,03,12,4.70
2012,03,25,03,13,4.70
2012,03,25,03,14,4.70
2012,03,25,03,15,4.70
2012,03,25,03,16,4.70
2012,03,25,03,17,4.70
2012,03,25,03,18,4.70
2012,03,25,03,19,4.70
2012,03,25,03,20,4.60
2012,03,25,03,21,4.60
2012,03,25,03,22,4.60
2012,03,25,03,23,4.60
2012,03,25,03,24,4.60
2012,03,25,03,25,4.60
2012,03,25,03,26,4.50
2012,03,25,03,27,4.50
2012,03,25,03,28,4.40
2012,03,25,03,29,4.40
2012,03,25,03,30,4.40
2012,03,25,03,31,4.40
2012,03,25,03,32,4.30
2012,03,25,03,33,4.30
2012,03,25,03,34,4.30
2012,03,25,03,35,4.30
2012,03,25,03,36,4.30
2012,03,25,03,37,4.20
2012,03,25,03,38,4.20
2012,03,25,03,39,4.20
2012,03,25,03,40,4.20
2012,03,25,03,41,4.20
2012,03,25,03,42,4.20
2012,03,25,03,43,4.20
2012,03,25,03,44,4.20
2012,03,25,03,45,4.20
2012,03,25,03,46,4.20
2012,03,25,03,47,4.20
2012,03,25,03,48,4.20
2012,03,25,03,49,4.20
2012,03,25,03,50,4.20
2012,03,25,03,51,4.20
2012,03,25,03,52,4.20
2012,03,25,03,53,4.20
2012,03,25,03,54,4.20
2012,03,25,03,55,4.20
2012,03,25,03,56,4.20
2012,03,25,03,57,4.20
2012,03,25,03,58,4.20
2012,03,25,03,59,4.20
2012,03,25,04,00,4.20
2012,03,25,04,01,4.20
2012,03,25,04,02,4.20
2012,03,25,04,03,4.20
2012,03,25,04,04,4.20
2012,03,25,04,05,4.20
2012,03,25,04,06,4.20
2012,03,25,04,07,4.20
2012,03,25,04,08,4.20
2012,03,25,04,09,4.20
2012,03,25,04,10,4.20
2012,03,25,04,11,4.20
2012,03,25,04,12,4.20
2012,03,25,04,13,4.20
2012,03,25,04,14,4.20
2012,03,25,04,15,4.20
2012,03,25,04,16,4.20
2012,03,25,04,17,4.20
2012,03,25,04,18,4.20
2012,03,25,04,19,4.20
2012,03,25,04,20,4.20
2012,03,25,04,21,4.20
2012,03,25,04,22,4.20
2012,03,25,04,23,4.20
2012,03,25,04,24,4.20
2012,03,25,04,25,4.10
2012,03,25,04,26,4.10
2012,03,25,04,27,4.10
2012,03,25,04,28,4.10
2012,03,25,04,29,4.10
2012,03,25,04,30,4.10
2012,03,25,04,31,4.10
2012,03,25,04,32,4.10
2012,03,25,04,33,4.00
2012,03,25,04,34,4.00
2012,03,25,04,35,4.00
2012,03,25,04,36,4.00
2012,03,25,04,37,3.90
2012,03,25,04,38,3.90
2012,03,25,04,39,3.90
2012,03,25,04,40,3.90
2012,03,25,04,41,3.90
2012,03,25,04,42,3.90
2012,03,25,04,43,3.90
2012,03,25,04,44,3.90
2012,03,25,04,45,3.90
2012,03,25,04,46,3.90
2012,03,25,04,47,3.90
2012,03,25,04,48,3.80
2012,03,25,04,49,3.80
2012,03,25,04,50,3.80
2012,03,25,04,51,3.80
2012,03,25,04,52,3.80
2012,03,25,04,53,3.80
2012,03,25,04,54,3.80
2012,03,25,04,55,3.80
2012,03,25,04,56,3.80
2012,03,25,04,57,3.80
2012,03,25,04,58,3.80
2012,03,25,04,59,3.80
2012,03,25,05,00,3.80
2012,03,25,05,01,3.80
2012,03,25,05,02,3.80
2012,03,25,05,03,3.70
2012,03,25,05,04,3.70
2012,03,25,05,05,3.70
2012,03,25,05,06,3.70
2012,03,25,05,07,3.70
2012,03,25,05,08,3.70
2012,03,25,05,09,3.70
2012,03,25,05,10,3.70
2012,03,25,05,11,3.70
2012,03,25,05,12,3.70
2012,03,25,05,13,3.60
2012,03,25,05,14,3.60
2012,03,25,05,15,3.60
2012,03,25,05,16,3.60
2012,03,25,05,17,3.60
2012,03,25,05,18,3.60
2012,03,25,05,19,3.60
2012,03,25,05,20,3.60
2012,03,25,05,21,3.60
2012,03,25,05,22,3.70
2012,03,25,05,23,3.70
2012,03,25,05,24,3.70
2012,03,25,05,25,3.70
2012,03,25,05,26,3.70
2012,03,25,05,27,3.70
2012,03,25,05,28,3.80
2012,03,25,05,29,3.80
2012,03,25,05,30,3.80
2012,03,25,05,31,3.80
2012,03,25,05,32,3.90
2012,03,25,05,33,3.90
2012,03,25,05,34,3.90
2012,03,25,05,35,4.00
2012,03,25,05,36,4.00
2012,03,25,05,37,4.10
2012,03,25,05,38,4.10
2012,03,25,05,39,4.10
2012,03,25,05,40,4.10
2012,03,25,05,41,4.10
2012,03,25,05,42,4.20
2012,03,25,05,43,4.20
2012,03,25,05,44,4.20
2012,03,25,05,45,4.20
2012,03,25,05,46,4.20
2012,03,25,05,47,4.20
2012,03,25,05,48,4.20
2012,03,25,05,49,4.20
2012,03,25,05,50,4.20
2012,03,25,05,51,4.20
2012,03,25,05,52,4.30
2012,03,25,05,53,4.30
2012,03,25,05,54,4.30
2012,03,25,05,55,4.30
2012,03,25,05,56,4.30
2012,03,25,05,57,4.30
2012,03,25,05,58,4.30
2012,03,25,05,59,4.40
2012,03,25,06,00,4.40
2012,03,25,06,01,4.40
2012,03,25,06,02,4.40
2012,03,25,06,03,4.40
2012,03,25,06,04,4.40
2012,03,25,06,05,4.50
2012,03,25,06,06,4.50
2012,03,25,06,07,4.60
2012,03,25,06,08,4.60
2012,03,25,06,09,4.60
2012,03,25,06,10,4.60
2012,03,25,06,11,4.60
2012,03,25,06,12,4.70
2012,03,25,06,13,4.70
2012,03,25,06,14,4.70
2012,03,25,06,15,4.70
2012,03,25,06,16,4.70
2012,03,25,06,17,4.70
2012,03,25,06,18,4.70
2012,03,25,06,19,4.80
2012,03,25,06,20,4.80
2012,03,25,06,21,4.80
2012,03,25,06,22,4.80
2012,03,25,06,23,4.90
2012,03,25,06,24,4.90
2012,03,25,06,25,4.90
2012,03,25,06,26,4.90
2012,03,25,06,27,4.90
2012,03,25,06,28,4.90
2012,03,25,06,29,4.90
2012,03,25,06,30,4.90
2012,03,25,06,31,4.90
2012,03,25,06,32,4.90
2012,03,25,06,33,4.90
2012,03,25,06,34,4.90
2012,03,25,06,35,4.90
2012,03,25,06,36,4.90
2012,03,25,06,37,4.90
2012,03,25,06,38,4.90
2012,03,25,06,39,4.90
2012,03,25,06,40,4.90
2012,03,25,06,41,4.90
2012,03,25,06,42,4.90
2012,03,25,06,43,5.00
2012,03,25,06,44,5.00
2012,03,25,06,45,5.00
2012,03,25,06,46,5.00
2012,03,25,06,47,5.00
2012,03,25,06,48,5.10
2012,03,25,06,49,5.10
2012,03,25,06,50,5.10
2012,03,25,06,51,5.10
2012,03,25,06,52,5.10
2012,03,25,06,53,5.10
2012,03,25,06,54,5.10
2012,03,25,06,55,5.10
2012,03,25,06,56,5.20
2012,03,25,06,57,5.20
2012,03,25,06,58,5.20
2012,03,25,06,59,5.20
2012,03,25,07,00,5.20
2012,03,25,07,01,5.20
2012,03,25,07,02,5.20
2012,03,25,07,03,5.20
2012,03,25,07,04,5.20
2012,03,25,07,05,5.20
2012,03,25,07,06,5.30
2012,03,25,07,07,5.30
2012,03,25,07,08,5.30
2012,03,25,07,09,5.30
2012,03,25,07,10,5.30
2012,03,25,07,11,5.30
2012,03,25,07,12,5.30
2012,03,25,07,13,5.30
2012,03,25,07,14,5.30
2012,03,25,07,15,5.30
2012,03,25,07,16,5.40
2012,03,25,07,17,5.30
2012,03,25,07,18,5.30
2012,03,25,07,19,5.40
2012,03,25,07,20,5.40
2012,03,25,07,21,5.40
2012,03,25,07,22,5.40
2012,03,25,07,23,5.40
2012,03,25,07,24,5.40
2012,03,25,07,25,5.30
2012,03,25,07,26,5.30
2012,03,25,07,27,5.30
2012,03,25,07,28,5.30
2012,03,25,07,29,5.30
2012,03,25,07,30,5.30
2012,03,25,07,31,5.30
2012,03,25,07,32,5.30
2012,03,25,07,33,5.30
2012,03,25,07,34,5.30
2012,03,25,07,35,5.30
2012,03,25,07,36,5.30
2012,03,25,07,37,5.30
2012,03,25,07,38,5.30
2012,03,25,07,39,5.30
2012,03,25,07,40,5.30
2012,03,25,07,41,5.30
2012,03,25,07,42,5.30
2012,03,25,07,43,5.30
2012,03,25,07,44,5.30
2012,03,25,07,45,5.40
2012,03,25,07,46,5.40
2012,03,25,07,47,5.40
2012,03,25,07,48,5.40
2012,03,25,07,49,5.40
2012,03,25,07,50,5.50
2012,03,25,07,51,5.50
2012,03,25,07,52,5.50
2012,03,25,07,53,5.60
2012,03,25,07,54,5.60
2012,03,25,07,55,5.60
2012,03,25,07,56,5.70
2012,03,25,07,57,5.70
2012,03,25,07,58,5.80
2012,03,25,07,59,5.80
2012,03,25,08,00,5.80
2012,03,25,08,01,5.90
2012,03,25,08,02,5.90
2012,03,25,08,03,6.00
2012,03,25,08,04,6.10
2012,03,25,08,05,6.10
2012,03,25,08,06,6.20
2012,03,25,08,07,6.20
2012,03,25,08,08,6.30
2012,03,25,08,09,6.30
2012,03,25,08,10,6.40
2012,03,25,08,11,6.40
2012,03,25,08,12,6.50
2012,03,25,08,13,6.50
2012,03,25,08,14,6.60
2012,03,25,08,15,6.70
2012,03,25,08,16,6.70
2012,03,25,08,17,6.80
2012,03,25,08,18,6.80
2012,03,25,08,19,6.80
2012,03,25,08,20,6.90
2012,03,25,08,21,6.90
2012,03,25,08,22,6.90
2012,03,25,08,23,7.00
2012,03,25,08,24,7.00
2012,03,25,08,25,7.10
2012,03,25,08,26,7.10
2012,03,25,08,27,7.20
2012,03,25,08,28,7.20
2012,03,25,08,29,7.20
2012,03,25,08,30,7.30
2012,03,25,08,31,7.30
2012,03,25,08,32,7.30
2012,03,25,08,33,7.40
2012,03,25,08,34,7.40
2012,03,25,08,35,7.50
2012,03,25,08,36,7.60
2012,03,25,08,37,7.60
2012,03,25,08,38,7.70
2012,03,25,08,39,7.70
2012,03,25,08,40,7.80
2012,03,25,08,41,7.90
2012,03,25,08,42,7.90
2012,03,25,08,43,8.00
2012,03,25,08,44,8.00
2012,03,25,08,45,8.10
2012,03,25,08,46,8.10
2012,03,25,08,47,8.20
2012,03,25,08,48,8.20
2012,03,25,08,49,8.20
2012,03,25,08,50,8.30
2012,03,25,08,51,8.30
2012,03,25,08,52,8.30
2012,03,25,08,53,8.30
2012,03,25,08,54,8.30
2012,03,25,08,55,8.40
2012,03,25,08,56,8.40
2012,03,25,08,57,8.40
2012,03,25,08,58,8.40
2012,03,25,08,59,8.40
2012,03,25,09,00,8.40
2012,03,25,09,01,8.40
2012,03,25,09,02,8.40
2012,03,25,09,03,8.50
2012,03,25,09,04,8.50
2012,03,25,09,05,8.60
2012,03,25,09,06,8.60
2012,03,25,09,07,8.60
2012,03,25,09,08,8.70
2012,03,25,09,09,8.70
2012,03,25,09,10,8.70
2012,03,25,09,11,8.70
2012,03,25,09,12,8.70
2012,03,25,09,13,8.70
2012,03,25,09,14,8.70
2012,03,25,09,15,8.80
2012,03,25,09,16,8.80
2012,03,25,09,17,8.80
2012,03,25,09,18,8.80
2012,03,25,09,19,8.80
2012,03,25,09,20,8.80
2012,03,25,09,21,8.80
2012,03,25,09,22,8.80
2012,03,25,09,23,8.90
2012,03,25,09,24,8.90
2012,03,25,09,25,8.90
2012,03,25,09,26,8.90
2012,03,25,09,27,8.90
2012,03,25,09,28,8.90
2012,03,25,09,29,9.00
2012,03,25,09,30,9.00
2012,03,25,09,31,9.00
2012,03,25,09,32,9.00
2012,03,25,09,33,9.00
2012,03,25,09,34,9.00
2012,03,25,09,35,9.00
2012,03,25,09,36,9.10
2012,03,25,09,37,9.10
2012,03,25,09,38,9.10
2012,03,25,09,39,9.10
2012,03,25,09,40,9.10
2012,03,25,09,41,9.20
2012,03,25,09,42,9.20
2012,03,25,09,43,9.20
2012,03,25,09,44,9.30
2012,03,25,09,45,9.30
2012,03,25,09,46,9.40
2012,03,25,09,47,9.40
2012,03,25,09,48,9.50
2012,03,25,09,49,9.50
2012,03,25,09,50,9.50
2012,03,25,09,51,9.60
2012,03,25,09,52,9.60
2012,03,25,09,53,9.60
2012,03,25,09,54,9.70
2012,03,25,09,55,9.70
2012,03,25,09,56,9.70
2012,03,25,09,57,9.70
2012,03,25,09,58,9.70
2012,03,25,09,59,9.70
2012,03,25,10,00,9.70
2012,03,25,10,01,9.80
2012,03,25,10,02,9.80
2012,03,25,10,03,9.80
2012,03,25,10,04,9.80
2012,03,25,10,05,9.90
2012,03,25,10,06,9.90
2012,03,25,10,07,10.00
2012,03,25,10,08,10.00
2012,03,25,10,09,10.10
2012,03,25,10,10,10.20
2012,03,25,10,11,10.20
2012,03,25,10,12,10.20
2012,03,25,10,13,10.20
2012,03,25,10,14,10.20
2012,03,25,10,15,10.30
2012,03,25,10,16,10.30
2012,03,25,10,17,10.30
2012,03,25,10,18,10.30
2012,03,25,10,19,10.30
2012,03,25,10,20,10.40
2012,03,25,10,21,10.40
2012,03,25,10,22,10.40
2012,03,25,10,23,10.50
2012,03,25,10,24,10.50
2012,03,25,10,25,10.60
2012,03,25,10,26,10.60
2012,03,25,10,27,10.70
2012,03,25,10,28,10.70
2012,03,25,10,29,10.70
2012,03,25,10,30,10.70
2012,03,25,10,31,10.80
2012,03,25,10,32,10.80
2012,03,25,10,33,10.90
2012,03,25,10,34,10.90
2012,03,25,10,35,10.90
2012,03,25,10,36,11.00
2012,03,25,10,37,11.00
2012,03,25,10,38,11.00
2012,03,25,10,39,11.00
2012,03,25,10,40,11.00
2012,03,25,10,41,11.00
2012,03,25,10,42,11.00
2012,03,25,10,43,11.00
2012,03,25,10,44,11.00
2012,03,25,10,45,11.00
2012,03,25,10,46,11.10
2012,03,25,10,47,11.10
2012,03,25,10,48,11.10
2012,03,25,10,49,11.10
2012,03,25,10,50,11.20
2012,03,25,10,51,11.20
2012,03,25,10,52,11.20
2012,03,25,10,53,11.20
2012,03,25,10,54,11.30
2012,03,25,10,55,11.30
2012,03,25,10,56,11.30
2012,03,25,10,57,11.30
2012,03,25,10,58,11.30
2012,03,25,10,59,11.40
2012,03,25,11,00,11.30
2012,03,25,11,01,11.40
2012,03,25,11,02,11.30
2012,03,25,11,03,11.30
2012,03,25,11,04,11.40
2012,03,25,11,05,11.40
2012,03,25,11,06,11.40
2012,03,25,11,07,11.40
2012,03,25,11,08,11.40
2012,03,25,11,09,11.40
2012,03,25,11,10,11.50
2012,03,25,11,11,11.50
2012,03,25,11,12,11.50
2012,03,25,11,13,11.50
2012,03,25,11,14,11.50
2012,03,25,11,15,11.60
2012,03,25,11,16,11.60
2012,03,25,11,17,11.60
2012,03,25,11,18,11.60
2012,03,25,11,19,11.60
2012,03,25,11,20,11.70
2012,03,25,11,21,11.70
2012,03,25,11,22,11.70
2012,03,25,11,23,11.70
2012,03,25,11,24,11.70
2012,03,25,11,25,11.70
2012,03,25,11,26,11.70
2012,03,25,11,27,11.80
2012,03,25,11,28,11.80
2012,03,25,11,29,11.80
2012,03,25,11,30,11.90
2012,03,25,11,31,11.90
2012,03,25,11,32,11.90
2012,03,25,11,33,11.90
2012,03,25,11,34,11.90
2012,03,25,11,35,11.90
2012,03,25,11,36,11.90
2012,03,25,11,37,11.90
2012,03,25,11,38,11.90
2012,03,25,11,39,11.90
2012,03,25,11,40,12.00
2012,03,25,11,41,12.10
2012,03,25,11,42,12.10
2012,03,25,11,43,12.10
2012,03,25,11,44,12.10
2012,03,25,11,45,12.20
2012,03,25,11,46,12.20
2012,03,25,11,47,12.20
2012,03,25,11,48,12.20
2012,03,25,11,49,12.20
2012,03,25,11,50,12.20
2012,03,25,11,51,12.20
2012,03,25,11,52,12.20
2012,03,25,11,53,12.20
2012,03,25,11,54,12.20
2012,03,25,11,55,12.20
2012,03,25,11,56,12.20
2012,03,25,11,57,12.20
2012,03,25,11,58,12.20
2012,03,25,11,59,12.20
2012,03,25,12,00,12.30
2012,03,25,12,01,12.30
2012,03,25,12,02,12.30
2012,03,25,12,03,12.30
2012,03,25,12,04,12.30
2012,03,25,12,05,12.40
2012,03,25,12,06,12.40
2012,03,25,12,07,12.50
2012,03,25,12,08,12.50
2012,03,25,12,09,12.60
2012,03,25,12,10,12.60
2012,03,25,12,11,12.60
2012,03,25,12,12,12.60
2012,03,25,12,13,12.70
2012,03,25,12,14,12.70
2012,03,25,12,15,12.70
2012,03,25,12,16,12.70
2012,03,25,12,17,12.70
2012,03,25,12,18,12.70
2012,03,25,12,19,12.70
2012,03,25,12,20,12.70
2012,03,25,12,21,12.80
2012,03,25,12,22,12.80
2012,03,25,12,23,12.80
2012,03,25,12,24,12.80
2012,03,25,12,25,12.90
2012,03,25,12,26,12.90
2012,03,25,12,27,12.90
2012,03,25,12,28,12.90
2012,03,25,12,29,12.90
2012,03,25,12,30,12.90
2012,03,25,12,31,12.90
2012,03,25,12,32,12.90
2012,03,25,12,33,12.90
2012,03,25,12,34,12.90
2012,03,25,12,35,12.80
2012,03,25,12,36,12.80
2012,03,25,12,37,12.80
2012,03,25,12,38,12.80
2012,03,25,12,39,12.70
2012,03,25,12,40,12.80
2012,03,25,12,41,12.80
2012,03,25,12,42,12.80
2012,03,25,12,43,12.80
2012,03,25,12,44,12.80
2012,03,25,12,45,12.90
2012,03,25,12,46,12.90
2012,03,25,12,47,13.00
2012,03,25,12,48,13.00
2012,03,25,12,49,13.00
2012,03,25,12,50,13.10
2012,03,25,12,51,13.10
2012,03,25,12,52,13.10
2012,03,25,12,53,13.00
2012,03,25,12,54,12.90
2012,03,25,12,55,12.90
2012,03,25,12,56,12.90
2012,03,25,12,57,12.90
2012,03,25,12,58,12.90
2012,03,25,12,59,13.00
2012,03,25,13,00,13.00
2012,03,25,13,01,13.10
2012,03,25,13,02,13.20
2012,03,25,13,03,13.20
2012,03,25,13,04,13.30
2012,03,25,13,05,13.40
2012,03,25,13,06,13.50
2012,03,25,13,07,13.60
2012,03,25,13,08,13.60
2012,03,25,13,09,13.70
2012,03,25,13,10,13.80
2012,03,25,13,11,13.80
2012,03,25,13,12,13.80
2012,03,25,13,13,13.80
2012,03,25,13,14,13.80
2012,03,25,13,15,13.80
2012,03,25,13,16,13.80
2012,03,25,13,17,13.80
2012,03,25,13,18,13.70
2012,03,25,13,19,13.70
2012,03,25,13,20,13.70
2012,03,25,13,21,13.80
2012,03,25,13,22,13.80
2012,03,25,13,23,13.80
2012,03,25,13,24,13.80
2012,03,25,13,25,13.80
2012,03,25,13,26,13.80
2012,03,25,13,27,13.80
2012,03,25,13,28,13.80
2012,03,25,13,29,13.80
2012,03,25,13,30,13.80
2012,03,25,13,31,13.80
2012,03,25,13,32,13.80
2012,03,25,13,33,13.80
2012,03,25,13,34,13.80
2012,03,25,13,35,13.70
2012,03,25,13,36,13.70
2012,03,25,13,37,13.60
2012,03,25,13,38,13.60
2012,03,25,13,39,13.60
2012,03,25,13,40,13.50
2012,03,25,13,41,13.50
2012,03,25,13,42,13.50
2012,03,25,13,43,13.50
2012,03,25,13,44,13.50
2012,03,25,13,45,13.50
2012,03,25,13,46,13.50
2012,03,25,13,47,13.50
2012,03,25,13,48,13.60
2012,03,25,13,49,13.60
2012,03,25,13,50,13.60
2012,03,25,13,51,13.60
2012,03,25,13,52,13.50
2012,03,25,13,53,13.50
2012,03,25,13,54,13.40
2012,03,25,13,55,13.40
2012,03,25,13,56,13.40
2012,03,25,13,57,13.50
2012,03,25,13,58,13.50
2012,03,25,13,59,13.50
2012,03,25,14,00,13.40
2012,03,25,14,01,13.50
2012,03,25,14,02,13.50
2012,03,25,14,03,13.50
2012,03,25,14,04,13.50
2012,03,25,14,05,13.60
2012,03,25,14,06,13.60
2012,03,25,14,07,13.60
2012,03,25,14,08,13.60
2012,03,25,14,09,13.70
2012,03,25,14,10,13.70
2012,03,25,14,11,13.70
2012,03,25,14,12,13.80
2012,03,25,14,13,13.80
2012,03,25,14,14,13.70
2012,03,25,14,15,13.80
2012,03,25,14,16,13.80
2012,03,25,14,17,13.80
2012,03,25,14,18,13.80
2012,03,25,14,19,13.80
2012,03,25,14,20,13.80
2012,03,25,14,21,13.80
2012,03,25,14,22,13.90
2012,03,25,14,23,13.90
2012,03,25,14,24,14.00
2012,03,25,14,25,14.10
2012,03,25,14,26,14.10
2012,03,25,14,27,14.10
2012,03,25,14,28,14.10
2012,03,25,14,29,14.10
2012,03,25,14,30,14.10
2012,03,25,14,31,14.10
2012,03,25,14,32,14.10
2012,03,25,14,33,14.10
2012,03,25,14,34,14.10
2012,03,25,14,35,14.10
2012,03,25,14,36,14.10
2012,03,25,14,37,14.10
2012,03,25,14,38,14.10
2012,03,25,14,39,14.10
2012,03,25,14,40,14.00
2012,03,25,14,41,13.90
2012,03,25,14,42,13.90
2012,03,25,14,43,13.90
2012,03,25,14,44,13.90
2012,03,25,14,45,13.90
2012,03,25,14,46,13.90
2012,03,25,14,47,13.90
2012,03,25,14,48,14.00
2012,03,25,14,49,14.00
2012,03,25,14,50,14.00
2012,03,25,14,51,14.10
2012,03,25,14,52,14.10
2012,03,25,14,53,14.20
2012,03,25,14,54,14.20
2012,03,25,14,55,14.30
2012,03,25,14,56,14.30
2012,03,25,14,57,14.40
2012,03,25,14,58,14.40
2012,03,25,14,59,14.50
2012,03,25,15,00,14.60
2012,03,25,15,01,14.70
2012,03,25,15,02,14.80
2012,03,25,15,03,14.80
2012,03,25,15,04,14.90
2012,03,25,15,05,15.00
2012,03,25,15,06,15.00
2012,03,25,15,07,15.10
2012,03,25,15,08,15.10
2012,03,25,15,09,15.20
2012,03,25,15,10,15.20
2012,03,25,15,11,15.30
2012,03,25,15,12,15.30
2012,03,25,15,13,15.40
2012,03,25,15,14,15.40
2012,03,25,15,15,15.40
2012,03,25,15,16,15.50
2012,03,25,15,17,15.60
2012,03,25,15,18,15.60
2012,03,25,15,19,15.60
2012,03,25,15,20,15.60
2012,03,25,15,21,15.60
2012,03,25,15,22,15.70
2012,03,25,15,23,15.70
2012,03,25,15,24,15.70
2012,03,25,15,25,15.70
2012,03,25,15,26,15.80
2012,03,25,15,27,15.80
2012,03,25,15,28,15.80
2012,03,25,15,29,15.80
2012,03,25,15,30,15.80
2012,03,25,15,31,15.80
2012,03,25,15,32,15.80
2012,03,25,15,33,15.80
2012,03,25,15,34,15.80
2012,03,25,15,35,15.80
2012,03,25,15,36,15.90
2012,03,25,15,37,15.90
2012,03,25,15,38,15.90
2012,03,25,15,39,15.90
2012,03,25,15,40,16.00
2012,03,25,15,41,16.00
2012,03,25,15,42,16.00
2012,03,25,15,43,16.00
2012,03,25,15,44,15.90
2012,03,25,15,45,15.90
2012,03,25,15,46,15.90
2012,03,25,15,47,15.90
2012,03,25,15,48,15.90
2012,03,25,15,49,16.00
2012,03,25,15,50,16.00
2012,03,25,15,51,16.00
2012,03,25,15,52,16.10
2012,03,25,15,53,16.10
2012,03,25,15,54,16.10
2012,03,25,15,55,16.20
2012,03,25,15,56,16.20
2012,03,25,15,57,16.20
2012,03,25,15,58,16.20
2012,03,25,15,59,16.20
2012,03,25,16,00,16.30
2012,03,25,16,01,16.30
2012,03,25,16,02,16.20
2012,03,25,16,03,16.10
2012,03,25,16,04,16.00
2012,03,25,16,05,15.90
2012,03,25,16,06,15.80
2012,03,25,16,07,15.60
2012,03,25,16,08,15.50
2012,03,25,16,09,15.30
2012,03,25,16,10,15.20
2012,03,25,16,11,15.00
2012,03,25,16,12,14.80
2012,03,25,16,13,14.60
2012,03,25,16,14,14.40
2012,03,25,16,15,14.20
2012,03,25,16,16,14.00
2012,03,25,16,17,13.90
2012,03,25,16,18,13.80
2012,03,25,16,19,13.60
2012,03,25,16,20,13.60
2012,03,25,16,21,13.50
2012,03,25,16,22,13.40
2012,03,25,16,23,13.40
2012,03,25,16,24,13.40
2012,03,25,16,25,13.40
2012,03,25,16,26,13.40
2012,03,25,16,27,13.30
2012,03,25,16,28,13.30
2012,03,25,16,29,13.20
2012,03,25,16,30,13.10
2012,03,25,16,31,13.10
2012,03,25,16,32,13.10
2012,03,25,16,33,13.10
2012,03,25,16,34,13.10
2012,03,25,16,35,13.10
2012,03,25,16,36,13.10
2012,03,25,16,37,13.10
2012,03,25,16,38,13.20
2012,03,25,16,39,13.20
2012,03,25,16,40,13.20
2012,03,25,16,41,13.20
2012,03,25,16,42,13.30
2012,03,25,16,43,13.30
2012,03,25,16,44,13.40
2012,03,25,16,45,13.40
2012,03,25,16,46,13.40
2012,03,25,16,47,13.50
2012,03,25,16,48,13.50
2012,03,25,16,49,13.60
2012,03,25,16,50,13.60
2012,03,25,16,51,13.60
2012,03,25,16,52,13.70
2012,03,25,16,53,13.70
2012,03,25,16,54,13.70
2012,03,25,16,55,13.70
2012,03,25,16,56,13.70
2012,03,25,16,57,13.70
2012,03,25,16,58,13.70
2012,03,25,16,59,13.70
2012,03,25,17,00,13.80
2012,03,25,17,01,13.80
2012,03,25,17,02,13.80
2012,03,25,17,03,13.80
2012,03,25,17,04,13.90
2012,03,25,17,05,13.90
2012,03,25,17,06,13.90
2012,03,25,17,07,13.90
2012,03,25,17,08,13.90
2012,03,25,17,09,13.80
2012,03,25,17,10,13.80
2012,03,25,17,11,13.80
2012,03,25,17,12,13.80
2012,03,25,17,13,13.80
2012,03,25,17,14,13.70
2012,03,25,17,15,13.70
2012,03,25,17,16,13.70
2012,03,25,17,17,13.70
2012,03,25,17,18,13.70
2012,03,25,17,19,13.60
2012,03,25,17,20,13.60
2012,03,25,17,21,13.60
2012,03,25,17,22,13.60
2012,03,25,17,23,13.60
2012,03,25,17,24,13.60
2012,03,25,17,25,13.60
2012,03,25,17,26,13.50
2012,03,25,17,27,13.50
2012,03,25,17,28,13.50
2012,03,25,17,29,13.50
2012,03,25,17,30,13.50
2012,03,25,17,31,13.50
2012,03,25,17,32,13.50
2012,03,25,17,33,13.60
2012,03,25,17,34,13.60
2012,03,25,17,35,13.60
2012,03,25,17,36,13.60
2012,03,25,17,37,13.60
2012,03,25,17,38,13.60
2012,03,25,17,39,13.60
2012,03,25,17,40,13.60
2012,03,25,17,41,13.60
2012,03,25,17,42,13.70
2012,03,25,17,43,13.70
2012,03,25,17,44,13.70
2012,03,25,17,45,13.60